When you browse on this site, cookies collect data to enhance your experience and personalize the content and advertising you see.
Visit our Privacy Policy to learn more. By continuing to use the site, you agree to this use of cookies and data.
  • In Lithuania
  • List of Countries
  • For 7 days
  • Water Temperature
  • Weather Map
  • Weather Widgets
  • user-avatar
    Login

    Hourly Weather Biratnagar

    Today, 14 November, Thursday

    Time Temperature Precipitation Wind Pressure Humidity
    00:00 +24°C° 0 mm 1 mps 756 mmHg 65%
    01:00 +23°C° 0 mm 1 mps 756 mmHg 68%
    02:00 +23°C° 0 mm 1 mps 755 mmHg 71%
    03:00 +23°C° 0 mm 1 mps 755 mmHg 74%
    04:00 +23°C° 0 mm 1 mps 755 mmHg 75%
    05:00 +23°C° 0 mm 1 mps 755 mmHg 77%
    06:00 +21°C° 0 mm 0 mps 755 mmHg 82%
    07:00 +22°C° 0 mm 0 mps 756 mmHg 77%
    08:00 +24°C° 0 mm 0 mps 756 mmHg 72%
    09:00 +25°C° 0 mm 0 mps 757 mmHg 66%
    10:00 +27°C° 0 mm 0 mps 757 mmHg 62%
    11:00 +28°C° 0 mm 0 mps 756 mmHg 57%
    12:00 +29°C° 0 mm 0 mps 756 mmHg 53%
    13:00 +30°C° 0 mm 0 mps 755 mmHg 51%
    14:00 +30°C° 0 mm 0 mps 754 mmHg 50%
    15:00 +30°C° 0 mm 0 mps 754 mmHg 48%
    16:00 +29°C° 0 mm 0 mps 754 mmHg 52%
    17:00 +27°C° 0 mm 0 mps 754 mmHg 56%
    18:00 +28°C° 0 mm 1 mps 754 mmHg 61%
    19:00 +28°C° 0 mm 1 mps 755 mmHg 63%
    20:00 +27°C° 0 mm 1 mps 755 mmHg 66%
    21:00 +26°C° 0 mm 1 mps 755 mmHg 68%
    22:00 +26°C° 0 mm 1 mps 755 mmHg 70%
    23:00 +26°C° 0 mm 1 mps 755 mmHg 72%

    Tomorrow, 15 November, Friday

    Time Temperature Precipitation Wind Pressure Humidity
    00:00 +25°C° 0 mm 1 mps 755 mmHg 74%
    01:00 +25°C° 0 mm 1 mps 754 mmHg 75%
    02:00 +25°C° 0 mm 1 mps 754 mmHg 76%
    03:00 +24°C° 0 mm 1 mps 754 mmHg 77%
    04:00 +24°C° 0 mm 1 mps 754 mmHg 77%
    05:00 +24°C° 0 mm 1 mps 754 mmHg 78%
    06:00 +24°C° 0 mm 1 mps 754 mmHg 78%
    07:00 +25°C° 0 mm 1 mps 754 mmHg 73%
    08:00 +26°C° 0 mm 1 mps 755 mmHg 68%
    09:00 +26°C° 0 mm 0 mps 755 mmHg 63%
    10:00 +29°C° 0 mm 1 mps 755 mmHg 59%
    11:00 +30°C° 0 mm 1 mps 754 mmHg 55%
    12:00 +32°C° 0 mm 2 mps 754 mmHg 50%
    13:00 +32°C° 0 mm 2 mps 753 mmHg 49%
    14:00 +32°C° 0 mm 2 mps 753 mmHg 48%
    15:00 +34°C° 0 mm 2 mps 752 mmHg 46%
    16:00 +31°C° 0 mm 2 mps 752 mmHg 51%
    17:00 +29°C° 0 mm 2 mps 752 mmHg 56%
    18:00 +28°C° 0 mm 2 mps 752 mmHg 61%
    19:00 +27°C° 0 mm 2 mps 753 mmHg 62%
    20:00 +27°C° 0 mm 2 mps 753 mmHg 64%
    21:00 +26°C° 0 mm 2 mps 754 mmHg 65%
    22:00 +26°C° 0 mm 2 mps 753 mmHg 66%
    23:00 +25°C° 0 mm 1 mps 753 mmHg 68%

    Day after tomorrow, 16 November, Saturday

    Time Temperature Precipitation Wind Pressure Humidity
    00:00 +25°C° 0 mm 1 mps 753 mmHg 69%
    01:00 +24°C° 0 mm 1 mps 753 mmHg 70%
    02:00 +24°C° 0 mm 1 mps 753 mmHg 70%
    03:00 +24°C° 0 mm 1 mps 752 mmHg 71%
    04:00 +23°C° 0 mm 1 mps 753 mmHg 71%
    05:00 +23°C° 0 mm 1 mps 753 mmHg 71%
    06:00 +23°C° 0 mm 1 mps 753 mmHg 70%
    07:00 +24°C° 0 mm 1 mps 753 mmHg 67%
    08:00 +25°C° 0 mm 1 mps 754 mmHg 63%
    09:00 +25°C° 0 mm 0 mps 754 mmHg 60%
    10:00 +28°C° 0 mm 1 mps 754 mmHg 57%
    11:00 +29°C° 0 mm 1 mps 754 mmHg 54%
    12:00 +31°C° 0 mm 2 mps 753 mmHg 51%
    13:00 +31°C° 0 mm 2 mps 753 mmHg 50%
    14:00 +31°C° 0 mm 3 mps 752 mmHg 49%
    15:00 +31°C° 0 mm 3 mps 751 mmHg 48%
    16:00 +30°C° 0 mm 3 mps 752 mmHg 52%
    17:00 +29°C° 0 mm 2 mps 752 mmHg 56%
    18:00 +27°C° 0 mm 2 mps 752 mmHg 60%
    19:00 +27°C° 0 mm 2 mps 753 mmHg 62%
    20:00 +26°C° 0 mm 2 mps 753 mmHg 63%
    21:00 +25°C° 0 mm 1 mps 754 mmHg 65%
    22:00 +25°C° 0 mm 2 mps 754 mmHg 65%
    23:00 +24°C° 0 mm 2 mps 753 mmHg 66%

    17 November, Sunday

    Time Temperature Precipitation Wind Pressure Humidity
    00:00 +24°C° 0 mm 2 mps 753 mmHg 67%
    01:00 +24°C° 0 mm 2 mps 753 mmHg 68%
    02:00 +23°C° 0 mm 2 mps 753 mmHg 68%
    03:00 +23°C° 0 mm 2 mps 752 mmHg 68%
    04:00 +21°C° 0 mm 2 mps 752 mmHg 68%
    05:00 +22°C° 0 mm 1 mps 752 mmHg 69%
    06:00 +22°C° 0 mm 1 mps 752 mmHg 69%
    07:00 +23°C° 0 mm 1 mps 753 mmHg 65%
    08:00 +24°C° 0 mm 1 mps 753 mmHg 62%
    09:00 +26°C° 0 mm 1 mps 754 mmHg 59%
    10:00 +27°C° 0 mm 2 mps 753 mmHg 55%
    11:00 +28°C° 0 mm 2 mps 753 mmHg 51%
    12:00 +30°C° 0 mm 3 mps 753 mmHg 48%
    13:00 +30°C° 0 mm 3 mps 752 mmHg 47%
    14:00 +30°C° 0 mm 3 mps 752 mmHg 46%
    15:00 +32°C° 0 mm 4 mps 751 mmHg 46%
    16:00 +29°C° 0 mm 3 mps 751 mmHg 50%
    17:00 +28°C° 0 mm 3 mps 752 mmHg 54%
    18:00 +26°C° 0 mm 2 mps 752 mmHg 58%
    19:00 +26°C° 0 mm 2 mps 752 mmHg 59%
    20:00 +25°C° 0 mm 1 mps 753 mmHg 60%
    21:00 +24°C° 0 mm 1 mps 753 mmHg 60%
    22:00 +24°C° 0 mm 1 mps 753 mmHg 61%
    23:00 +23°C° 0 mm 1 mps 753 mmHg 62%

    18 November, Monday

    Time Temperature Precipitation Wind Pressure Humidity
    00:00 +23°C° 0 mm 1 mps 753 mmHg 64%
    01:00 +23°C° 0 mm 1 mps 752 mmHg 64%
    02:00 +20°C° 0 mm 0 mps 752 mmHg 65%
    03:00 +20°C° 0 mm 0 mps 752 mmHg 66%
    04:00 +20°C° 0 mm 0 mps 752 mmHg 68%
    05:00 +19°C° 0 mm 0 mps 752 mmHg 69%
    06:00 +19°C° 0 mm 0 mps 752 mmHg 70%
    07:00 +22°C° 0 mm 1 mps 753 mmHg 66%
    08:00 +24°C° 0 mm 1 mps 753 mmHg 62%
    09:00 +25°C° 0 mm 1 mps 754 mmHg 58%
    10:00 +27°C° 0 mm 1 mps 754 mmHg 54%
    11:00 +28°C° 0 mm 1 mps 753 mmHg 49%
    12:00 +29°C° 0 mm 1 mps 753 mmHg 44%
    13:00 +30°C° 0 mm 1 mps 753 mmHg 42%
    14:00 +30°C° 0 mm 2 mps 752 mmHg 40%
    15:00 +30°C° 0 mm 2 mps 752 mmHg 38%
    16:00 +29°C° 0 mm 2 mps 752 mmHg 43%
    17:00 +27°C° 0 mm 1 mps 752 mmHg 47%
    18:00 +26°C° 0 mm 1 mps 752 mmHg 51%
    19:00 +25°C° 0 mm 1 mps 752 mmHg 53%
    20:00 +25°C° 0 mm 1 mps 753 mmHg 55%
    21:00 +24°C° 0 mm 1 mps 753 mmHg 57%
    22:00 +23°C° 0 mm 1 mps 753 mmHg 59%
    23:00 +23°C° 0 mm 1 mps 753 mmHg 61%

    19 November, Tuesday

    Time Temperature Precipitation Wind Pressure Humidity
    00:00 +23°C° 0 mm 1 mps 753 mmHg 64%
    01:00 +22°C° 0 mm 1 mps 753 mmHg 65%
    02:00 +22°C° 0 mm 1 mps 752 mmHg 67%
    03:00 +21°C° 0 mm 1 mps 752 mmHg 68%
    04:00 +21°C° 0 mm 1 mps 752 mmHg 70%
    05:00 +21°C° 0 mm 1 mps 752 mmHg 71%
    06:00 +21°C° 0 mm 1 mps 752 mmHg 72%
    07:00 +22°C° 0 mm 1 mps 753 mmHg 68%
    08:00 +24°C° 0 mm 1 mps 753 mmHg 64%
    09:00 +25°C° 0 mm 2 mps 754 mmHg 60%
    10:00 +26°C° 0 mm 2 mps 754 mmHg 56%
    11:00 +28°C° 0 mm 2 mps 753 mmHg 52%
    12:00 +29°C° 0 mm 2 mps 753 mmHg 47%
    13:00 +29°C° 0 mm 1 mps 753 mmHg 45%
    14:00 +29°C° 0 mm 1 mps 752 mmHg 43%
    15:00 +30°C° 0 mm 1 mps 751 mmHg 41%
    16:00 +28°C° 0 mm 1 mps 752 mmHg 45%
    17:00 +27°C° 0 mm 1 mps 752 mmHg 49%
    18:00 +25°C° 0 mm 1 mps 752 mmHg 53%
    19:00 +25°C° 0 mm 1 mps 752 mmHg 55%
    20:00 +24°C° 0 mm 1 mps 753 mmHg 57%
    21:00 +23°C° 0 mm 1 mps 753 mmHg 58%
    22:00 +23°C° 0 mm 1 mps 753 mmHg 61%
    23:00 +23°C° 0 mm 1 mps 753 mmHg 63%
    Show more